[[{"header":{"parameterUnit":"m.s-1","parameterCategory":1,"la1":30.2991,"la2":30.254,"lo1":-89.0895,"lo2":-89.0444,"dy":0.0017,"dx":0.0017,"nx":28,"ny":28,"refTime":"2024-07-18T21:00:00:Z","depth":0,"parameterNumber":2,"parameterNumberName":"U-component_of_WINDS"},"data":[0,0,0,0,0,0,0,0,0,0,0,0,0,0,0,0,0,0,0,0,0,0,0,0,0,0,0,0,0,0,0,0,0,0,0,0,0,0,0,0,0,0,0,0,0,0,0,0,0,0,0,0,0,0,0,0,0,0,4.2686,4.2688,0,4.289,4.2892,4.2894,4.2939,4.2937,4.2936,4.2935,4.3137,4.3143,4.315,0,0,0,0,0,0,0,0,0,0,0,0,0,4.2326,4.2333,4.2685,4.2688,4.2691,4.2889,4.2892,4.2895,4.2939,4.2937,4.2936,4.2934,4.3135,4.3143,4.3151,0,0,0,0,0,0,0,0,0,0,0,0,0,4.2501,4.2335,4.2685,4.2737,4.2743,4.2889,4.2892,4.2896,4.2939,4.2937,4.2935,4.2933,4.3132,4.3142,4.3152,4.3258,0,0,4.3183,4.3187,0,0,0,0,0,0,0,0,4.2491,4.2514,4.2727,4.2733,4.2741,4.2887,4.284,4.3017,4.294,4.2865,4.2935,4.2932,4.3055,4.3071,4.3114,4.3267,4.3276,4.3184,4.319,4.3194,4.3197,0,0,0,0,0,0,0,4.2479,4.2506,4.2766,4.273,4.2739,4.2747,4.277,4.2873,4.2969,4.2871,4.2875,4.2899,4.3058,4.3104,4.3119,4.3279,4.3183,4.3192,4.3199,4.3203,4.3527,4.3529,0,0,0,0,0,0,4.2459,4.2495,4.276,4.2772,4.2609,4.2755,4.2781,4.2842,4.2969,4.2986,4.2901,4.29,4.3088,4.3107,4.3126,4.3258,4.3194,4.3204,4.3209,4.3524,4.3527,4.353,0,0,0,0,0,0,4.2451,4.2482,4.2751,4.2635,4.267,4.2764,4.2833,4.2847,4.2893,4.2991,4.3007,4.293,4.3087,4.3112,4.3225,4.3265,4.3208,4.3217,4.3521,4.3525,4.3529,4.3521,0,0,0,0,0,0,4.2441,4.2479,4.2522,4.2636,4.2676,4.2849,4.2835,4.2853,4.2911,4.2913,4.3023,4.3039,4.3087,4.3209,4.3235,4.3278,4.3225,4.3518,4.3523,4.3528,4.3518,4.3524,4.3529,0,0,0,0,0,4.2428,4.2511,4.2524,4.2556,4.2732,4.2851,4.2874,4.293,4.2914,4.2957,4.3019,4.3036,4.3257,4.3221,4.325,4.3296,4.3516,4.3522,4.3527,4.3515,4.3523,4.3529,0,0,0,0,0,0,4.2398,4.2527,4.2543,4.2666,4.2747,4.2858,4.2914,4.2936,4.3021,4.3019,4.3082,4.3107,4.3215,4.3267,4.3225,4.3404,4.3385,4.3397,4.3366,4.3374,4.338,4.3364,4.3234,0,0,0,0,0,4.2406,4.2494,4.2601,4.2699,4.2739,4.2819,4.2873,4.2909,4.2995,4.3029,4.31,4.318,4.3268,4.3324,4.341,4.3526,4.3549,4.3572,4.3577,4.3582,4.3591,4.3653,4.3664,4.3549,4.3549,4.3549,0,0,4.2423,4.2504,4.2555,4.2695,4.2762,4.2849,4.2848,4.294,4.3005,4.3042,4.3153,4.3207,4.3301,4.3415,4.3469,4.3462,4.3628,4.3589,4.3592,4.3599,4.366,4.3671,4.368,4.3553,4.3552,4.3551,0,0,4.2498,4.2569,4.2658,4.2726,4.2828,4.2881,4.2902,4.301,4.3048,4.3161,4.319,4.3266,4.3416,4.3481,4.3534,4.3632,4.3649,4.3658,4.3687,4.3747,4.3756,4.3764,4.3797,4.3808,4.3667,4.3667,4.3667,0,4.2505,4.264,4.27,4.2792,4.2851,4.2891,4.2979,4.3041,4.3165,4.3204,4.3195,4.3383,4.3449,4.3578,4.3602,4.3644,4.3668,4.3646,4.375,4.3759,4.3768,4.38,4.3812,4.3667,4.3667,4.3667,4.3667,0,4.2643,4.2735,4.2794,4.2915,4.2981,4.307,4.3142,4.3201,4.323,4.3283,4.3395,4.3476,4.3578,4.3612,4.3641,4.3744,4.3736,4.3738,4.372,4.3778,4.3809,4.3822,4.3668,4.3668,4.3668,4.3667,0,0,4.2705,4.2858,4.2878,4.2933,4.3048,4.312,4.3209,4.3311,4.3359,4.3443,4.3518,4.3644,4.3646,4.3705,4.3742,4.3795,4.3865,4.379,4.3793,4.38,4.398,4.3977,4.3991,4.3877,4.388,4.3882,4.3972,0,4.2793,4.2957,4.3013,4.3148,4.3233,4.3271,4.3349,4.3426,4.3477,4.3554,4.361,4.3697,4.3695,4.373,4.3785,4.3845,4.3902,4.3839,4.3945,4.3948,4.3919,4.4007,4.4005,4.4086,4.3984,4.3986,4.3988,0,4.2917,4.3005,4.3148,4.3252,4.3289,4.3358,4.3455,4.353,4.3617,4.365,4.3716,4.3749,4.3841,4.3818,4.3944,4.3901,4.3947,4.3983,4.3987,4.3998,4.397,4.4018,4.4113,4.4124,4.4008,4.4007,4.4005,0,4.2946,4.3099,4.3205,4.325,4.3374,4.3421,4.3474,4.356,4.3617,4.37,4.3737,4.383,4.388,4.395,4.4005,4.3984,4.4126,4.4108,4.4153,4.4152,4.418,4.4178,4.4282,4.4213,4.4213,4.4212,4.4212,0,4.3037,4.3123,4.3219,4.3283,4.338,4.3442,4.3535,4.359,4.3665,4.3739,4.3777,4.3845,4.3915,4.3991,4.4035,4.4132,4.4154,4.4182,4.4192,4.4178,4.4174,4.4208,4.4203,4.4216,4.4215,4.4214,4.4214,0,4.3085,4.3153,4.327,4.3378,4.3407,4.3472,4.3563,4.3626,4.3678,4.3771,4.3796,4.3878,4.3969,4.4032,4.4149,4.4178,4.4282,4.4292,4.4253,4.4257,4.4299,4.4293,4.4427,4.4447,4.4366,4.4366,4.4367,0,4.3138,4.3205,4.332,4.3374,4.3427,4.3512,4.3571,4.3634,4.3693,4.3797,4.3846,4.394,4.4019,4.4163,4.4231,4.432,4.4331,4.4372,4.4345,4.4327,4.433,4.4324,4.433,4.4376,4.4376,4.4377,4.4377,0,4.3225,4.3255,4.3339,4.3435,4.3504,4.3582,4.366,4.3701,4.3777,4.3841,4.3936,4.3997,4.4116,4.4208,4.4304,4.4355,4.4378,4.4385,4.44,4.4385,4.4359,4.4372,4.4262,4.4382,4.4381,4.4381,4.4381,4.4381,4.3276,4.3336,4.3427,4.3519,4.3584,4.3656,4.372,4.3781,4.3862,4.3965,4.3997,4.4095,4.4178,4.4308,4.4361,4.4437,4.4433,4.4455,4.4461,4.4465,4.4463,4.4348,4.4454,4.4454,4.4454,4.4454,4.4454,0,4.3363,4.3423,4.3507,4.3615,4.3687,4.3705,4.3791,4.3849,4.3935,4.4012,4.4089,4.4197,4.4286,4.4361,4.4452,4.4498,4.451,4.452,4.4516,4.4527,4.4462,4.4439,4.4508,4.4508,4.4508,4.4508,4.4508,4.4508,4.3416,4.3519,4.356,4.3694,4.3753,4.3851,4.3899,4.3964,4.4025,4.4145,4.422,4.4269,4.4344,4.4441,4.4522,4.4542,4.4572,4.4579,4.46,4.4538,4.4532,4.4526,4.4505,4.4586,4.4586,4.4659,4.4659,4.466]},{"header":{"parameterUnit":"m.s-1","parameterCategory":1,"la1":30.2991,"la2":30.254,"lo1":-89.0895,"lo2":-89.0444,"dy":0.0017,"dx":0.0017,"nx":28,"ny":28,"refTime":"2024-07-18T21:00:00:Z","depth":0,"parameterNumber":3,"parameterNumberName":"V-component_of_WINDS"},"data":[0,0,0,0,0,0,0,0,0,0,0,0,0,0,0,0,0,0,0,0,0,0,0,0,0,0,0,0,0,0,0,0,0,0,0,0,0,0,0,0,0,0,0,0,0,0,0,0,0,0,0,0,0,0,0,0,0,0,1.9088,1.9091,0,1.9355,1.9358,1.9361,1.941,1.9408,1.9406,1.9403,1.968,1.969,1.9699,0,0,0,0,0,0,0,0,0,0,0,0,0,1.8623,1.8631,1.9088,1.9091,1.9095,1.9355,1.9358,1.9362,1.941,1.9408,1.9405,1.9402,1.9677,1.9688,1.97,0,0,0,0,0,0,0,0,0,0,0,0,0,1.8851,1.8634,1.9088,1.915,1.9158,1.9354,1.9359,1.9363,1.9411,1.9408,1.9404,1.9401,1.9674,1.9687,1.9701,1.9855,0,0,1.9745,1.9751,0,0,0,0,0,0,0,0,1.8838,1.8868,1.9138,1.9146,1.9156,1.9346,1.9296,1.9528,1.9412,1.9315,1.9403,1.94,1.9572,1.9594,1.9652,1.9868,1.9879,1.9746,1.9754,1.976,1.9764,0,0,0,0,0,0,0,1.8822,1.8857,1.9194,1.9141,1.9153,1.9166,1.9195,1.934,1.9459,1.9323,1.9327,1.9358,1.9576,1.9638,1.9659,1.9883,1.9745,1.9758,1.9767,1.9772,2.024,2.0243,0,0,0,0,0,0,1.8795,1.8843,1.9185,1.9202,1.8985,1.9177,1.9209,1.9288,1.9457,1.948,1.9361,1.9359,1.9615,1.9642,1.9669,1.9861,1.976,1.9774,1.9782,2.0236,2.0241,2.0245,0,0,0,0,0,0,1.8785,1.8825,1.9175,1.9024,1.9069,1.9188,1.9277,1.9295,1.9357,1.9486,1.9507,1.9402,1.9614,1.9649,1.9808,1.9871,1.978,1.9793,2.0231,2.0237,2.0243,2.0246,0,0,0,0,0,0,1.8771,1.8821,1.888,1.9025,1.9077,1.9309,1.9281,1.9303,1.9381,1.9382,1.953,1.9551,1.9614,1.9787,1.9822,1.9889,1.9804,2.0226,2.0234,2.0241,2.0241,2.0251,2.026,0,0,0,0,0,1.8754,1.8871,1.8883,1.8924,1.9153,1.9313,1.9343,1.9411,1.9385,1.9447,1.9529,1.9547,1.9857,1.9803,1.9843,1.9915,2.0223,2.0232,2.024,2.0237,2.0249,2.026,0,0,0,0,0,0,1.8732,1.8891,1.8906,1.9072,1.9178,1.932,1.94,1.9422,1.9539,1.9535,1.9616,1.9649,1.9805,1.9875,1.9811,2.0073,2.0038,2.0056,2.0022,2.0035,2.0044,2.0026,1.9816,0,0,0,0,0,1.8745,1.8861,1.8994,1.9128,1.918,1.928,1.9352,1.9396,1.9509,1.9555,1.9649,1.976,1.9882,1.9962,2.0082,2.025,2.0284,2.0319,2.0329,2.0336,2.0351,2.0447,2.0465,2.0274,2.0274,2.0274,0,0,1.8777,1.8878,1.8946,1.9126,1.9213,1.9332,1.9318,1.9444,1.9533,1.9574,1.9732,1.9804,1.9932,2.0097,2.0174,2.0161,2.0411,2.0347,2.0352,2.0364,2.0458,2.0476,2.0492,2.028,2.0279,2.0278,0,0,1.8895,1.8981,1.9104,1.9191,1.9323,1.9388,1.9417,1.9556,1.9605,1.9763,1.9797,1.9904,2.0113,2.0204,2.0278,2.0428,2.0449,2.0464,2.0517,2.0609,2.0624,2.0638,2.0695,2.0713,2.0478,2.0478,2.0478,0,1.8918,1.9097,1.9164,1.9289,1.9368,1.9408,1.9533,1.9615,1.9779,1.9833,1.9815,2.0079,2.0168,2.0355,2.0392,2.0449,2.0486,2.045,2.0616,2.0631,2.0645,2.07,2.072,2.0479,2.0479,2.0479,2.0479,0,1.912,1.9243,1.9326,1.9483,1.957,1.9695,1.9782,1.9862,1.9897,1.9965,2.0126,2.0233,2.0377,2.0423,2.0459,2.0616,2.0604,2.0599,2.0568,2.0663,2.0716,2.0737,2.0481,2.0481,2.048,2.048,0,0,1.9235,1.9425,1.9455,1.9527,1.9674,1.9772,1.9897,2.0036,2.0105,2.0216,2.0326,2.05,2.0497,2.0581,2.0626,2.0707,2.0822,2.0693,2.0697,2.0716,2.1005,2.101,2.1033,2.0835,2.0839,2.0842,2.0995,0,1.9373,1.9599,1.9662,1.9854,1.997,2.0008,2.0118,2.0221,2.0287,2.0395,2.0468,2.0592,2.0577,2.0628,2.0709,2.0791,2.0882,2.078,2.094,2.0945,2.0911,2.1061,2.1067,2.1206,2.1016,2.102,2.1022,0,1.9566,1.968,1.9883,2.0015,2.0066,2.0164,2.0296,2.0399,2.0516,2.0558,2.065,2.0688,2.0822,2.0779,2.0966,2.0895,2.0964,2.1013,2.1021,2.1042,2.0993,2.1089,2.1252,2.1274,2.1055,2.1052,2.105,0,1.9634,1.9838,1.9986,2.0046,2.0203,2.0271,2.034,2.0453,2.0533,2.0648,2.0701,2.083,2.0902,2.1001,2.1074,2.1035,2.1256,2.1218,2.1297,2.1295,2.1346,2.1342,2.1525,2.1382,2.1382,2.1382,2.1381,0,1.9785,1.9908,2.0019,2.011,2.025,2.032,2.0457,2.0527,2.0627,2.0734,2.0774,2.0874,2.0961,2.1073,2.113,2.1277,2.1308,2.1348,2.1363,2.1347,2.1343,2.1397,2.1391,2.1387,2.1386,2.1385,2.1384,0,1.9886,1.9965,2.0129,2.0263,2.03,2.0397,2.0513,2.0604,2.0669,2.0804,2.084,2.0944,2.1077,2.1158,2.1326,2.1365,2.1529,2.1538,2.149,2.1497,2.1573,2.1566,2.1801,2.1836,2.1665,2.1667,2.1668,0,1.9979,2.0075,2.0219,2.0293,2.0362,2.048,2.0561,2.0633,2.0716,2.0856,2.0931,2.1066,2.1179,2.139,2.1481,2.1611,2.1625,2.1698,2.1645,2.1627,2.1631,2.1626,2.1637,2.1709,2.171,2.1711,2.1712,0,2.0137,2.0171,2.0285,2.0414,2.0508,2.0613,2.0717,2.0775,2.0866,2.0956,2.1093,2.118,2.1351,2.1486,2.1623,2.1695,2.1721,2.1727,2.1753,2.1741,2.1711,2.1732,2.1518,2.1723,2.1722,2.1721,2.1721,2.172,2.0241,2.0328,2.0443,2.0569,2.0654,2.0751,2.0843,2.0919,2.1034,2.1179,2.1214,2.1358,2.1472,2.1659,2.1733,2.1847,2.1836,2.1873,2.1883,2.1892,2.1896,2.1688,2.1872,2.1872,2.1872,2.1871,2.1871,0,2.0404,2.0479,2.0594,2.0738,2.0838,2.0848,2.0964,2.1047,2.1173,2.1277,2.1386,2.1543,2.1673,2.1773,2.1908,2.198,2.1995,2.2013,2.2011,2.2028,2.1896,2.1862,2.1999,2.1999,2.1999,2.1999,2.1999,2.1999,2.0501,2.065,2.0697,2.0889,2.0964,2.1104,2.1169,2.1259,2.1342,2.1515,2.1623,2.1687,2.179,2.1932,2.2052,2.2078,2.2128,2.2145,2.2173,2.205,2.2036,2.2023,2.1992,2.2154,2.2154,2.2296,2.2297,2.2298]}]]